Macon, GA

6:38 PM EST on February 20, 2017 (GMT -0500)
Middle Georgia Regional

Weather History for KMCN - April, 2013

Change the Weather History Date:

Sunday, April 28, 2013

  Actual Average Record
Temperature  
Mean Temperature 70 °F 67 °F  
Max Temperature 80 °F 80 °F 92 °F (1989)
Min Temperature 60 °F 53 °F 40 °F (1967)
Degree Days  
Heating Degree Days 0 2  
Month to date heating degree days 123 108  
Since 1 July heating degree days 2235 2305  
Cooling Degree Days 5 3  
Month to date cooling degree days 32 55  
Year to date cooling degree days 54 76  
Growing Degree Days 20 (Base 50)    
Moisture  
Dew Point 60 °F    
Average Humidity 77    
Maximum Humidity 100    
Minimum Humidity 54    
Precipitation  
Precipitation 0.63 in 0.09 in 1.42 in (1922)
Month to date precipitation 5.82 2.80  
Year to date precipitation 24.53 15.95  
Sea Level Pressure  
Sea Level Pressure 30.07 in    
Wind  
Wind Speed 7 mph (SE)    
Max Wind Speed 20 mph    
Max Gust Speed 28 mph    
Visibility 8 miles    
Events Rain , Thunderstorm    
T = Trace of Precipitation, MM = Missing Value Source: NWS Daily Summary

Daily Weather History Graph

Daily Weather History Graph

Search for Another Location

Airport or City:

Trip Planner

Search our weather history database for the weather conditions in past years. The results will help you decide how hot, cold, wet, or windy it might be!

Date:

Astronomy

Apr. 28, 2013 Rise Set
Actual Time 6:50 AM EDT 8:14 PM EDT
Civil Twilight 6:24 AM EDT 8:40 PM EDT
Nautical Twilight 5:53 AM EDT 9:11 PM EDT
Astronomical Twilight 5:20 AM EDT 9:44 PM EDT
Moon 11:37 PM EDT (4/28) 9:11 AM EDT (4/28)
Length of Visible Light 14h 16m
Length of Day
13h 23m
Waning Gibbous, 89% of the Moon is Illuminated
Apr 28
Waning Gibbous
May 2
Last Quarter
May 9
New
May 18
First Quarter
May 25
Full

Hourly Weather History & Observations

Time (EDT) Temp. Dew Point Humidity Pressure Visibility Wind Dir Wind Speed Gust Speed Precip Events Conditions
12:53 AM 61.0 °F 54.0 °F 78% 30.15 in 10.0 mi East 6.9 mph - N/A   Partly Cloudy
1:53 AM 61.0 °F 55.0 °F 81% 30.14 in 10.0 mi SSE 4.6 mph - N/A   Overcast
2:53 AM 64.0 °F 55.0 °F 73% 30.12 in 10.0 mi South 8.1 mph - N/A   Mostly Cloudy
3:53 AM 63.0 °F 55.9 °F 78% 30.12 in 10.0 mi Variable 4.6 mph - N/A   Overcast
4:53 AM 63.0 °F 55.9 °F 78% 30.13 in 10.0 mi Calm Calm - N/A   Overcast
5:53 AM 61.0 °F 57.0 °F 87% 30.12 in 10.0 mi East 3.5 mph - N/A   Overcast
6:53 AM 60.1 °F 55.9 °F 86% 30.12 in 10.0 mi SE 5.8 mph - N/A   Overcast
7:53 AM 61.0 °F 57.0 °F 87% 30.14 in 10.0 mi SE 5.8 mph - N/A   Scattered Clouds
8:31 AM 62.6 °F 57.2 °F 82% 30.14 in 10.0 mi SE 5.8 mph - N/A   Mostly Cloudy
8:53 AM 62.6 °F 57.2 °F 82% 30.14 in 10.0 mi SE 9.2 mph - N/A   Overcast
9:00 AM 62.6 °F 57.2 °F 82% 30.14 in 10.0 mi SE 9.2 mph - N/A   Overcast
9:53 AM 64.9 °F 60.1 °F 84% 30.13 in 10.0 mi SSE 8.1 mph - N/A   Overcast
10:32 AM 69.8 °F 62.6 °F 78% 30.12 in 10.0 mi South 9.2 mph - N/A   Overcast
10:53 AM 70.0 °F 62.1 °F 76% 30.11 in 10.0 mi South 9.2 mph - N/A   Mostly Cloudy
11:07 AM 71.6 °F 62.6 °F 73% 30.11 in 10.0 mi South 5.8 mph - N/A   Mostly Cloudy
11:53 AM 73.0 °F 63.0 °F 71% 30.09 in 10.0 mi South 11.5 mph 19.6 mph N/A   Mostly Cloudy
12:34 PM 75.2 °F 62.6 °F 65% 30.08 in 10.0 mi South 8.1 mph - N/A   Mostly Cloudy
12:53 PM 75.9 °F 63.0 °F 64% 30.06 in 10.0 mi South 8.1 mph 18.4 mph N/A   Mostly Cloudy
1:53 PM 78.1 °F 61.0 °F 56% 30.03 in 10.0 mi SW 9.2 mph - N/A   Mostly Cloudy
2:53 PM 77.0 °F 62.1 °F 60% 30.01 in 10.0 mi South 11.5 mph 17.3 mph N/A   Mostly Cloudy
3:53 PM 78.1 °F 61.0 °F 56% 29.99 in 10.0 mi SSW 6.9 mph - N/A   Mostly Cloudy
4:53 PM 75.2 °F 62.6 °F 65% 29.97 in 10.0 mi SSE 6.9 mph - N/A   Mostly Cloudy
5:26 PM 75.2 °F 59.0 °F 57% 29.97 in 10.0 mi South 8.1 mph - N/A Thunderstorm Thunderstorm
5:53 PM 73.9 °F 63.0 °F 68% 29.96 in 10.0 mi SSW 8.1 mph - N/A Thunderstorm Thunderstorm
6:53 PM 64.9 °F 63.0 °F 93% 30.01 in 7.0 mi NNW 5.8 mph - 0.04 in Rain Light Rain
7:53 PM 64.9 °F 64.0 °F 97% 30.00 in 2.5 mi North 3.5 mph - 0.13 in Rain Rain
8:00 PM 64.4 °F 64.4 °F 100% 30.00 in 8.0 mi North 3.5 mph - 0.00 in Rain Light Rain
8:53 PM 64.0 °F 63.0 °F 96% 30.00 in 8.0 mi North 5.8 mph - 0.01 in Rain Light Rain
9:53 PM 64.0 °F 63.0 °F 96% 30.03 in 9.0 mi North 8.1 mph - 0.00 in Rain Light Rain
10:00 PM 62.6 °F 62.6 °F 100% 30.04 in 5.0 mi North 12.7 mph - 0.06 in Rain Rain
10:03 PM 62.6 °F 62.6 °F 100% 30.04 in 5.0 mi NNE 15.0 mph 20.7 mph 0.06 in Rain Light Rain
10:16 PM 62.6 °F 60.8 °F 94% 30.05 in 3.0 mi North 12.7 mph - 0.12 in Rain Heavy Rain
10:18 PM 62.6 °F 60.8 °F 94% 30.05 in 2.5 mi North 11.5 mph - 0.14 in Rain Heavy Rain
10:29 PM 62.6 °F 60.8 °F 94% 30.05 in 4.0 mi NNE 5.8 mph - 0.19 in Rain Rain
10:53 PM 61.0 °F 60.1 °F 97% 30.04 in 6.0 mi NNE 6.9 mph - 0.25 in Rain Light Rain
11:06 PM 60.8 °F 60.8 °F 100% 30.05 in 7.0 mi Calm Calm - 0.01 in Rain Light Rain
11:21 PM 60.8 °F 60.8 °F 100% 30.06 in 2.0 mi Calm Calm - 0.08 in Rain Rain
11:30 PM 60.8 °F 60.8 °F 100% 30.07 in 4.0 mi Calm Calm - 0.10 in Rain Light Rain
11:53 PM 61.0 °F 61.0 °F 100% 30.05 in 7.0 mi NNE 4.6 mph - 0.15 in Rain Light Rain